Location: Ottawa
(45.4170°N, 75.7000°W)
Time: 04:24:37
(UTC-04:00)

Amateur Radio Satellites - All Passes

Search period start: 25 April 2014 03:54
Search period end: 26 April 2014 03:54
Location: Ottawa, 45.4170°N, 75.7000°W

Satellite Date Start Highest point End Downlink Frequencies (MHz)
Time Altitude Azimuth
AO-Echo 25 Apr 03:57:43 04:02:22 55° 289° (WNW) 04:06:56 ?
Uribyol 2 25 Apr 03:59:45 04:04:41 46° 291° (WNW) 04:09:37 436.500 FM
TMSAT-1 25 Apr 04:14:08 04:19:23 59° 101° (E) 04:24:36 436.925 FM
Uosat F 25 Apr 04:21:45 04:25:52 25° 94° (E) 04:29:57 435.120 FM
JAS-1B 25 Apr 04:36:39 04:42:07 47° 100° (E) 04:47:57 435.800 - 435.900 CW/SSB
AO-27 25 Apr 04:43:58 04:47:50 22° 299° (WNW) 04:51:42 436.795 MHz FM
Oscar 19 25 Apr 04:45:21 04:47:35 13° 305° (NW) 04:49:49 437.125 CW, 437.150 USB
RS-15 25 Apr 04:49:11 04:57:32 25° 102° (ESE) 05:05:40 29.354 - 29.394 USB, Beacon 29.352 USB
ITAMSAT 1 25 Apr 04:53:18 04:56:49 19° 301° (WNW) 05:00:20 435.822 SSB
Oscar 16 25 Apr 04:56:44 04:56:47 10° 307° (NW) 04:56:49 437.025 USB, Beacon 2401.1428
Gurwin Techsat 1B 25 Apr 05:10:05 05:14:53 36° 294° (WNW) 05:19:40 435.225 FM
MaSat-1 25 Apr 05:17:18 05:20:01 30° 58° (ENE) 05:23:10 437.345 MHz
AO-7 25 Apr 05:29:16 05:37:30 60° 103° (ESE) 05:45:42 29.400 - 29.500 MHz
KITSAT 1 25 Apr 05:45:27 05:51:08 20° 342° (NNW) 05:56:49 435.175 FM
STRAND 1 25 Apr 05:51:54 05:56:13 29° 64° (ENE) 06:00:33 ?
TMSAT-1 25 Apr 05:54:57 05:58:53 22° 299° (WNW) 06:02:48 436.925 FM
Uosat F 25 Apr 06:00:06 06:04:49 43° 292° (WNW) 06:09:31 435.120 FM
Hamsat 25 Apr 06:21:43 06:24:49 19° 91° (E) 06:27:54 145.90 MHz
JAS-1B 25 Apr 06:27:58 06:32:39 27° 298° (WNW) 06:37:30 435.800 - 435.900 CW/SSB
Sapphire 25 Apr 06:38:30 06:41:44 16° 33° (NNE) 06:44:57 437.095 MHz 1200 baud AX-25 AFSK
AO-40 25 Apr 06:46:29 09:47:16 21° 139° (SE) 11:13:11 Beacon 2401.320
MaSat-1 25 Apr 06:56:07 06:58:15 17° 249° (WSW) 07:00:36 437.345 MHz
RS-15 25 Apr 06:57:04 07:08:23 89° 124° (SE) 07:19:24 29.354 - 29.394 USB, Beacon 29.352 USB
PCSat 25 Apr 07:22:11 07:26:49 28° 43° (NE) 07:31:26 145.825 MHz
AO-7 25 Apr 07:22:34 07:29:56 37° 304° (WNW) 07:37:18 29.400 - 29.500 MHz
STRAND 1 25 Apr 07:30:28 07:35:15 40° 262° (W) 07:40:04 ?
KITSAT 1 25 Apr 07:44:49 07:50:11 18° 13° (NNE) 07:55:31 435.175 FM
Hamsat 25 Apr 07:56:51 08:01:02 45° 289° (WNW) 08:05:12 145.90 MHz
JAS-2 25 Apr 08:11:49 08:17:22 73° 103° (ESE) 08:23:33 435.800 - 435.900 CW/SSB, 435.910 FM
Sapphire 25 Apr 08:20:52 08:26:16 63° 55° (NE) 08:31:38 437.095 MHz 1200 baud AX-25 AFSK
SO-67 25 Apr 08:21:04 08:24:35 72° 102° (ESE) 08:28:04 435.3500 MHz FM
Saudisat 1A 25 Apr 08:54:44 08:57:18 15° 110° (ESE) 08:59:51 436.775 MHz
HO-68 25 Apr 08:56:15 09:01:04 19° 89° (E) 09:05:50 435.675 MHz FM
PCSat 25 Apr 09:05:16 09:10:36 58° 244° (WSW) 09:15:53 145.825 MHz
RS-15 25 Apr 09:12:08 09:22:12 38° 332° (NNW) 09:32:11 29.354 - 29.394 USB, Beacon 29.352 USB
AO-7 25 Apr 09:19:39 09:20:19 10° 327° (NNW) 09:20:58 29.400 - 29.500 MHz
KITSAT 1 25 Apr 09:40:41 09:48:13 40° 41° (NE) 09:55:41 435.175 FM
Oscar 11 25 Apr 09:53:41 09:56:36 17° 91° (E) 09:59:30 145.825 FM, Beacon 2401.500 USB
JAS-2 25 Apr 09:58:16 10:02:02 19° 300° (WNW) 10:06:03 435.800 - 435.900 CW/SSB, 435.910 FM
Sapphire 25 Apr 10:05:14 10:09:13 21° 253° (WSW) 10:13:11 437.095 MHz 1200 baud AX-25 AFSK
Saudisat 1A 25 Apr 10:31:54 10:36:22 71° 308° (NW) 10:40:50 436.775 MHz
Oscar 10/S400 25 Apr 10:42:12 12:16:17 48° 232° (SW) 18:06:31 145.825 - 145.975 CW/USB, Beacon 145.810 USB
HO-68 25 Apr 10:42:25 10:49:39 87° 288° (WNW) 10:56:51 435.675 MHz FM
Oscar 11 25 Apr 11:28:51 11:33:04 49° 288° (WNW) 11:37:17 145.825 FM, Beacon 2401.500 USB
RS-15 25 Apr 11:29:37 11:38:39 28° 6° (N) 11:47:40 29.354 - 29.394 USB, Beacon 29.352 USB
KITSAT 1 25 Apr 11:36:06 11:44:04 63° 243° (WSW) 11:51:59 435.175 FM
FUNcube-1 25 Apr 11:37:35 11:41:53 70° 102° (ESE) 11:46:17 145.950 - 145.970 MHz USB
Saudisat 1A 25 Apr 12:14:09 12:16:46 15° 328° (NNW) 12:19:25 436.775 MHz
HO-68 25 Apr 12:31:25 12:36:25 21° 308° (NW) 12:41:25 435.675 MHz FM
ISS 25 Apr 12:36:06 12:37:49 13° 133° (SE) 12:39:32 145.800 FM
Oscar 19 25 Apr 12:44:52 12:49:07 27° 63° (ENE) 12:53:23 437.125 CW, 437.150 USB
AO-27 25 Apr 12:47:07 12:50:18 17° 58° (ENE) 12:53:29 436.795 MHz FM
Oscar 16 25 Apr 12:53:54 12:58:29 33° 66° (ENE) 13:03:06 437.025 USB, Beacon 2401.1428
ITAMSAT 1 25 Apr 12:55:37 12:59:11 19° 60° (ENE) 13:02:45 435.822 SSB
FUNcube-1 25 Apr 13:15:39 13:17:48 14° 299° (WNW) 13:19:59 145.950 - 145.970 MHz USB
Gurwin Techsat 1B 25 Apr 13:18:27 13:19:34 11° 53° (NE) 13:20:40 435.225 FM
AO-Echo 25 Apr 13:34:31 13:39:01 32° 66° (ENE) 13:43:24 ?
KITSAT 1 25 Apr 13:35:03 13:37:50 12° 263° (W) 13:40:37 435.175 FM
JAS-1B 25 Apr 13:40:33 13:41:14 10° 50° (NE) 13:41:54 435.800 - 435.900 CW/SSB
Uribyol 2 25 Apr 13:40:39 13:45:34 46° 69° (ENE) 13:50:29 436.500 FM
RS-15 25 Apr 13:43:52 13:54:25 49° 39° (NE) 14:05:05 29.354 - 29.394 USB, Beacon 29.352 USB
TMSAT-1 25 Apr 13:59:44 14:03:09 18° 59° (ENE) 14:06:34 436.925 FM
ISS 25 Apr 14:10:44 14:14:04 85° 150° (SSE) 14:17:25 145.800 FM
Oscar 19 25 Apr 14:23:19 14:28:14 45° 261° (W) 14:33:12 437.125 CW, 437.150 USB
AO-27 25 Apr 14:24:01 14:29:12 78° 256° (WSW) 14:34:25 436.795 MHz FM
SO-50 25 Apr 14:32:27 14:36:53 68° 123° (ESE) 14:41:23 436.795 FM
ITAMSAT 1 25 Apr 14:33:02 14:38:11 66° 258° (WSW) 14:43:21 435.822 SSB
Oscar 16 25 Apr 14:33:08 14:37:48 34° 264° (W) 14:42:31 437.025 USB, Beacon 2401.1428
AO-7 25 Apr 14:40:37 14:46:54 25° 50° (NE) 14:53:12 29.400 - 29.500 MHz
Gurwin Techsat 1B 25 Apr 14:53:17 14:58:31 65° 72° (ENE) 15:03:47 435.225 FM
OPAL 25 Apr 15:11:05 15:15:26 26° 96° (E) 15:19:45 ?
AO-Echo 25 Apr 15:12:59 15:17:43 36° 263° (W) 15:22:20 ?
Uribyol 2 25 Apr 15:21:06 15:25:15 24° 267° (W) 15:29:26 436.500 FM
JAS-1B 25 Apr 15:23:35 15:30:46 55° 69° (ENE) 15:36:53 435.800 - 435.900 CW/SSB
Uosat F 25 Apr 15:36:58 15:41:42 44° 69° (ENE) 15:46:28 435.120 FM
TMSAT-1 25 Apr 15:37:12 15:42:29 75° 257° (WSW) 15:47:48 436.925 FM
ISS 25 Apr 15:48:02 15:51:04 31° 349° (N) 15:54:06 145.800 FM
RS-15 25 Apr 15:56:30 16:07:10 62° 244° (WSW) 16:18:07 29.354 - 29.394 USB, Beacon 29.352 USB
SO-50 25 Apr 16:14:26 16:17:54 21° 323° (NW) 16:21:25 436.795 FM
UOSAT-12 25 Apr 16:18:17 16:22:38 47° 119° (ESE) 16:27:06 437.025 FM, 437.400 FM
AO-7 25 Apr 16:30:26 16:38:43 89° 251° (WSW) 16:47:04 29.400 - 29.500 MHz
Gurwin Techsat 1B 25 Apr 16:35:22 16:38:57 18° 270° (W) 16:42:34 435.225 FM
OPAL 25 Apr 16:49:31 16:54:30 46° 294° (WNW) 16:59:27 ?
JAS-1B 25 Apr 17:15:18 17:21:37 29° 264° (W) 17:27:11 435.800 - 435.900 CW/SSB
Uosat F 25 Apr 17:16:37 17:20:41 25° 266° (W) 17:24:46 435.120 FM
Saudisat 1A 25 Apr 17:17:42 17:21:31 27° 41° (NE) 17:25:17 436.775 MHz
Hamsat 25 Apr 17:17:51 17:20:45 18° 63° (ENE) 17:23:41 145.90 MHz
ISS 25 Apr 17:25:22 17:28:23 30° 9° (N) 17:31:23 145.800 FM
UOSAT-12 25 Apr 17:58:59 18:03:00 29° 319° (NW) 18:07:05 437.025 FM, 437.400 FM
RS-15 25 Apr 18:12:50 18:17:04 13° 266° (W) 18:21:21 29.354 - 29.394 USB, Beacon 29.352 USB
AO-7 25 Apr 18:26:53 18:32:35 20° 271° (W) 18:38:20 29.400 - 29.500 MHz
JAS-2 25 Apr 18:27:24 18:32:21 37° 67° (ENE) 18:37:05 435.800 - 435.900 CW/SSB, 435.910 FM
Hamsat 25 Apr 18:52:18 18:56:23 47° 261° (W) 19:00:33 145.90 MHz
SO-67 25 Apr 18:56:57 19:00:07 33° 71° (ENE) 19:03:18 435.3500 MHz FM
Saudisat 1A 25 Apr 18:57:05 19:01:18 45° 241° (WSW) 19:05:28 436.775 MHz
ISS 25 Apr 19:02:03 19:05:25 85° 29° (NNE) 19:08:46 145.800 FM
HO-68 25 Apr 19:28:09 19:33:05 21° 52° (NE) 19:38:02 435.675 MHz FM
STRAND 1 25 Apr 19:38:26 19:43:29 58° 101° (E) 19:48:30 ?
JAS-2 25 Apr 20:12:46 20:17:34 30° 264° (W) 20:22:09 435.800 - 435.900 CW/SSB, 435.910 FM
SO-67 25 Apr 20:31:08 20:33:23 16° 268° (W) 20:35:39 435.3500 MHz FM
ISS 25 Apr 20:39:39 20:41:44 16° 226° (SW) 20:43:48 145.800 FM
Oscar 11 25 Apr 20:51:13 20:54:15 19° 63° (ENE) 20:57:17 145.825 FM, Beacon 2401.500 USB
MaSat-1 25 Apr 21:00:15 21:02:50 46° 300° (WNW) 21:05:15 437.345 MHz
HO-68 25 Apr 21:12:42 21:19:51 87° 72° (ENE) 21:27:03 435.675 MHz FM
STRAND 1 25 Apr 21:18:31 21:22:16 21° 299° (WNW) 21:26:00 ?
SO-50 25 Apr 21:22:08 21:25:41 21° 37° (NE) 21:29:16 436.795 FM
PCSat 25 Apr 22:09:19 22:11:35 13° 102° (ESE) 22:13:52 145.825 MHz
Oscar 11 25 Apr 22:25:57 22:30:07 47° 261° (W) 22:34:19 145.825 FM, Beacon 2401.500 USB
FUNcube-1 25 Apr 22:36:24 22:40:33 73° 75° (ENE) 22:44:43 145.950 - 145.970 MHz USB
SO-50 25 Apr 23:02:06 23:06:45 74° 237° (WSW) 23:11:27 436.795 FM
HO-68 25 Apr 23:03:41 23:08:26 19° 271° (W) 23:13:13 435.675 MHz FM
Sapphire 25 Apr 23:05:11 23:10:04 36° 112° (ESE) 23:15:00 437.095 MHz 1200 baud AX-25 AFSK
UOSAT-12 25 Apr 23:06:25 23:09:31 17° 32° (NNE) 23:12:36 437.025 FM, 437.400 FM
PCSat 25 Apr 23:48:44 23:54:09 85° 121° (ESE) 23:59:36 145.825 MHz
KITSAT 1 26 Apr 00:15:51 00:19:54 15° 99° (E) 00:23:57 435.175 FM
FUNcube-1 26 Apr 00:16:41 00:17:30 11° 272° (W) 00:18:18 145.950 - 145.970 MHz USB
UOSAT-12 26 Apr 00:45:43 00:50:28 75° 53° (NE) 00:55:10 437.025 FM, 437.400 FM
Sapphire 26 Apr 00:48:23 00:53:27 40° 311° (NW) 00:58:34 437.095 MHz 1200 baud AX-25 AFSK
PCSat 26 Apr 01:34:12 01:38:16 21° 321° (NW) 01:42:22 145.825 MHz
Uribyol 2 26 Apr 01:52:46 01:55:20 14° 88° (E) 01:57:52 436.500 FM
KITSAT 1 26 Apr 02:05:48 02:13:51 71° 118° (ESE) 02:21:56 435.175 FM
UOSAT-12 26 Apr 02:27:19 02:30:03 15° 251° (WSW) 02:32:45 437.025 FM, 437.400 FM
OPAL 26 Apr 02:27:52 02:32:50 58° 69° (ENE) 02:37:54 ?
Oscar 19 26 Apr 02:32:24 02:37:32 55° 100° (E) 02:42:37 437.125 CW, 437.150 USB
AO-27 26 Apr 02:35:11 02:39:48 32° 96° (E) 02:44:24 436.795 MHz FM
Sapphire 26 Apr 02:36:42 02:38:28 11° 335° (NNW) 02:40:15 437.095 MHz 1200 baud AX-25 AFSK
Oscar 16 26 Apr 02:41:56 02:47:09 72° 103° (ESE) 02:52:20 437.025 USB, Beacon 2401.1428
ITAMSAT 1 26 Apr 02:43:52 02:48:40 37° 97° (E) 02:53:27 435.822 SSB
Gurwin Techsat 1B 26 Apr 03:08:02 03:12:06 22° 92° (E) 03:16:07 435.225 FM
AO-Echo 26 Apr 03:17:38 03:22:21 62° 101° (ESE) 03:26:59 ?
Uribyol 2 26 Apr 03:30:14 03:35:27 82° 286° (WNW) 03:40:38 436.500 FM
Uosat F 26 Apr 03:45:08 03:46:20 11° 87° (E) 03:47:32 435.120 FM
